Munster, IL

8:34 AM CDT on September 28, 2016 (GMT -0500)
Lansing Municipal

Weather History for KIGQ - August, 2013

Change the Weather History Date:

Saturday, August 17, 2013

  Actual Average (KMDW) Record (KMDW)
Temperature  
Mean Temperature 66 °F 74 °F  
Max Temperature 80 °F 82 °F 99 °F (1988)
Min Temperature 52 °F 67 °F 48 °F (1976)
Degree Days  
Heating Degree Days 0 0  
Month to date heating degree days 0  
Since 1 June heating degree days 32  
Since 1 July heating degree days 1  
Cooling Degree Days 0 9  
Month to date cooling degree days 168  
Year to date cooling degree days 790  
Since 1 June cooling degree days 716  
Growing Degree Days 16 (Base 50)    
Moisture  
Dew Point 54 °F    
Average Humidity 66    
Maximum Humidity 95    
Minimum Humidity 32    
Precipitation  
Precipitation 0.00 in 0.13 in 2.60 in (1979)
Month to date precipitation 2.28  
Year to date precipitation 24.84  
Sea Level Pressure  
Sea Level Pressure 30.21 in    
Wind  
Wind Speed 3 mph (ENE)    
Max Wind Speed 12 mph    
Max Gust Speed 16 mph    
Visibility 10 miles    
Events      
T = Trace of Precipitation, MM = Missing Value Source: NWS Daily Summary

Daily Weather History Graph

Daily Weather History Graph

Search for Another Location

Airport or City:

Trip Planner

Search our weather history database for the weather conditions in past years. The results will help you decide how hot, cold, wet, or windy it might be!

Date:

Astronomy

Aug. 17, 2013 Rise Set
Actual Time 6:01 AM CDT 7:46 PM CDT
Civil Twilight 5:31 AM CDT 8:15 PM CDT
Nautical Twilight 4:55 AM CDT 8:51 PM CDT
Astronomical Twilight 4:16 AM CDT 9:30 PM CDT
Moon 5:02 PM CDT (8/17) 2:02 AM CDT (8/17)
Length of Visible Light 14h 44m
Length of Day
13h 45m
Waxing Gibbous, 84% of the Moon is Illuminated
Aug 17
Waxing Gibbous
Aug 20
Full
Aug 28
Last Quarter
Sep 5
New
Sep 12
First Quarter

Hourly Weather History & Observations

Time (CDT) Temp. Dew Point Humidity Pressure Visibility Wind Dir Wind Speed Gust Speed Precip Events Conditions
12:15 AM 57.7 °F 54.1 °F 88% 30.21 in 10.0 mi Calm Calm - N/A   Clear
12:35 AM 56.7 °F 53.8 °F 90% 30.21 in 10.0 mi Calm Calm - N/A   Clear
12:55 AM 58.1 °F 55.2 °F 90% 30.21 in 10.0 mi Calm Calm - N/A   Clear
1:15 AM 56.5 °F 54.1 °F 92% 30.21 in 10.0 mi Calm Calm - N/A   Clear
1:35 AM 57.9 °F 55.2 °F 91% 30.21 in 10.0 mi Calm Calm - N/A   Clear
1:55 AM 57.2 °F 53.6 °F 88% 30.21 in 10.0 mi Calm Calm - N/A   Clear
2:15 AM 55.6 °F 53.4 °F 92% 30.21 in 10.0 mi Calm Calm - N/A   Clear
2:35 AM 55.4 °F 53.2 °F 92% 30.20 in 7.0 mi Calm Calm - N/A   Clear
2:55 AM 55.0 °F 53.1 °F 93% 30.20 in 7.0 mi Calm Calm - N/A   Clear
3:15 AM 54.3 °F 52.5 °F 94% 30.21 in 5.0 mi Calm Calm - N/A   Clear
3:35 AM 55.4 °F 54.0 °F 95% 30.21 in 10.0 mi Calm Calm - N/A   Clear
3:55 AM 55.6 °F 53.8 °F 94% 30.21 in 10.0 mi Calm Calm - N/A   Clear
4:15 AM 55.0 °F 52.5 °F 91% 30.21 in 10.0 mi Calm Calm - N/A   Clear
4:35 AM 53.8 °F 51.6 °F 92% 30.21 in 10.0 mi Calm Calm - N/A   Clear
4:55 AM 53.6 °F 52.2 °F 95% 30.21 in 5.0 mi Calm Calm - N/A   Clear
5:15 AM 54.5 °F 52.9 °F 94% 30.21 in 10.0 mi Calm Calm - N/A   Clear
5:35 AM 54.0 °F 52.2 °F 94% 30.22 in 10.0 mi Calm Calm - N/A   Clear
5:55 AM 54.0 °F 52.0 °F 93% 30.23 in 10.0 mi Calm Calm - N/A   Clear
6:15 AM 52.7 °F 50.9 °F 94% 30.23 in 5.0 mi Calm Calm - N/A   Clear
6:35 AM 52.3 °F 50.9 °F 95% 30.23 in 7.0 mi Calm Calm - N/A   Clear
6:55 AM 54.0 °F 52.5 °F 95% 30.24 in 10.0 mi Calm Calm - N/A   Clear
7:15 AM 56.3 °F 54.1 °F 92% 30.24 in 10.0 mi Calm Calm - N/A   Clear
7:35 AM 59.2 °F 56.3 °F 90% 30.24 in 10.0 mi Calm Calm - N/A   Clear
7:55 AM 61.9 °F 57.6 °F 86% 30.24 in 10.0 mi Calm Calm - N/A   Clear
8:15 AM 65.5 °F 56.7 °F 73% 30.24 in 10.0 mi Calm Calm - N/A   Clear
8:35 AM 67.5 °F 55.0 °F 64% 30.25 in 10.0 mi Calm Calm - N/A   Clear
8:55 AM 68.7 °F 55.4 °F 62% 30.24 in 10.0 mi NE 3.5 mph - N/A   Clear
9:15 AM 70.9 °F 55.0 °F 57% 30.24 in 10.0 mi ENE 3.5 mph - N/A   Clear
9:35 AM 72.3 °F 54.3 °F 53% 30.24 in 10.0 mi East 4.6 mph - N/A   Clear
9:55 AM 73.4 °F 54.3 °F 51% 30.25 in 10.0 mi East 4.6 mph - N/A   Clear
10:15 AM 75.0 °F 51.4 °F 44% 30.25 in 10.0 mi East 8.1 mph - N/A   Clear
10:35 AM 76.6 °F 51.6 °F 42% 30.25 in 10.0 mi East 8.1 mph - N/A   Clear
10:55 AM 76.3 °F 54.0 °F 46% 30.24 in 10.0 mi SE 5.8 mph - N/A   Scattered Clouds
11:15 AM 76.8 °F 53.1 °F 44% 30.24 in 10.0 mi SE 9.2 mph - N/A   Mostly Cloudy
11:35 AM 77.0 °F 52.0 °F 42% 30.24 in 10.0 mi ENE 5.8 mph - N/A   Scattered Clouds
11:55 AM 76.5 °F 51.4 °F 42% 30.24 in 10.0 mi East 9.2 mph - N/A   Scattered Clouds
12:15 PM 77.4 °F 50.5 °F 39% 30.23 in 10.0 mi East 8.1 mph - N/A   Scattered Clouds
12:35 PM 77.2 °F 49.3 °F 37% 30.23 in 10.0 mi East 8.1 mph - N/A   Clear
12:55 PM 78.8 °F 50.2 °F 37% 30.22 in 10.0 mi East 9.2 mph - N/A   Scattered Clouds
1:15 PM 77.4 °F 51.1 °F 40% 30.21 in 10.0 mi ENE 5.8 mph - N/A   Scattered Clouds
1:35 PM 76.6 °F 50.7 °F 40% 30.21 in 10.0 mi East 9.2 mph - N/A   Mostly Cloudy
1:55 PM 76.6 °F 51.8 °F 42% 30.21 in 10.0 mi ENE 9.2 mph - N/A   Mostly Cloudy
2:15 PM 77.2 °F 51.4 °F 41% 30.20 in 10.0 mi East 10.4 mph - N/A   Mostly Cloudy
2:35 PM 79.5 °F 51.8 °F 38% 30.20 in 10.0 mi East 6.9 mph - N/A   Mostly Cloudy
2:55 PM 76.3 °F 50.9 °F 41% 30.19 in 10.0 mi ENE 6.9 mph - N/A   Mostly Cloudy
3:15 PM 79.9 °F 47.5 °F 32% 30.19 in 10.0 mi East 6.9 mph - N/A   Overcast
3:35 PM 79.0 °F 47.8 °F 33% 30.19 in 10.0 mi SSE 8.1 mph - N/A   Mostly Cloudy
3:55 PM 79.5 °F 47.8 °F 33% 30.18 in 10.0 mi NE 6.9 mph - N/A   Scattered Clouds
4:15 PM 79.2 °F 49.6 °F 35% 30.18 in 10.0 mi ESE 6.9 mph - N/A   Clear
4:35 PM 77.4 °F 51.8 °F 41% 30.18 in 10.0 mi NNE 11.5 mph 16.1 mph N/A   Scattered Clouds
4:55 PM 77.2 °F 51.4 °F 41% 30.18 in 10.0 mi NE 10.4 mph - N/A   Scattered Clouds
5:15 PM 77.4 °F 52.2 °F 41% 30.18 in 10.0 mi NE 10.4 mph - N/A   Scattered Clouds
5:35 PM 76.8 °F 52.7 °F 43% 30.19 in 10.0 mi ENE 10.4 mph - N/A   Clear
5:55 PM 76.1 °F 52.3 °F 43% 30.19 in 10.0 mi ENE 10.4 mph - N/A   Clear
6:15 PM 75.2 °F 52.9 °F 46% 30.19 in 10.0 mi NE 8.1 mph - N/A   Clear
6:35 PM 74.7 °F 53.4 °F 47% 30.19 in 10.0 mi ENE 8.1 mph - N/A   Clear
6:55 PM 73.8 °F 54.5 °F 51% 30.19 in 10.0 mi NE 6.9 mph - N/A   Clear
7:15 PM 73.0 °F 53.8 °F 51% 30.19 in 10.0 mi ENE 6.9 mph - N/A   Clear
7:35 PM 71.6 °F 54.3 °F 54% 30.19 in 10.0 mi NE 6.9 mph - N/A   Clear
7:55 PM 70.9 °F 55.4 °F 58% 30.19 in 10.0 mi NE 4.6 mph - N/A   Clear
8:15 PM 69.4 °F 56.5 °F 63% 30.19 in 10.0 mi NE 4.6 mph - N/A   Clear
8:35 PM 68.7 °F 57.9 °F 68% 30.19 in 10.0 mi NE 4.6 mph - N/A   Clear
8:55 PM 68.4 °F 58.1 °F 70% 30.19 in 10.0 mi NE 4.6 mph - N/A   Clear
9:15 PM 67.8 °F 58.5 °F 72% 30.19 in 10.0 mi NE 4.6 mph - N/A   Clear
9:35 PM 68.0 °F 58.8 °F 72% 30.19 in 10.0 mi NE 4.6 mph - N/A   Clear
9:55 PM 67.8 °F 59.9 °F 76% 30.19 in 10.0 mi NE 3.5 mph - N/A   Clear
10:15 PM 67.1 °F 60.4 °F 79% 30.19 in 10.0 mi NE 3.5 mph - N/A   Clear
10:35 PM 67.1 °F 60.6 °F 80% 30.19 in 10.0 mi NE 3.5 mph - N/A   Clear
10:55 PM 66.6 °F 60.6 °F 81% 30.19 in 10.0 mi Calm Calm - N/A   Clear
11:15 PM 63.5 °F 58.8 °F 85% 30.19 in 10.0 mi Calm Calm - N/A   Clear
11:35 PM 61.0 °F 57.6 °F 88% 30.18 in 10.0 mi Calm Calm - N/A   Clear
11:55 PM 59.5 °F 57.0 °F 91% 30.18 in 7.0 mi Calm Calm - N/A   Clear